User: anonymous   Login
Location: Unspecified
(0.0000°N, 0.0000°E)
Time: 19:12:41
(UTC+00:00)
Language:

STARLINK-34239 - Orbit

View from above orbital plane
View from above orbital plane
View from above satellite
View from above satellite

Ground track
Ground track

The orbit is defined by the following mean orbital elements,

1 64728U          26145.49965270 +.00000000 +00000-0 +36261-4 0 00002
2 64728  53.1586 184.1354 0001044  84.4851 275.6269 15.30200750    02
Epoch (UTC): 25 May 2026 11:59:29
Eccentricity: 0.0001044
inclination: 53.1586°
perigee height: 474 km
apogee height: 476 km
right ascension of ascending node: 184.1354°
argument of perigee: 84.4851°
revolutions per day: 15.30200750
mean anomaly at epoch: 275.6269°

The dashed part of the orbit path shows where the satellite is in the earth's shadow,  

DLR